[[{"header":{"parameterUnit":"m.s-1","parameterCategory":1,"la1":30.2991,"la2":30.254,"lo1":-89.0895,"lo2":-89.0444,"dy":0.0017,"dx":0.0017,"nx":28,"ny":28,"refTime":"2023-09-20T09:00:00:Z","depth":0,"parameterNumber":2,"parameterNumberName":"U-component_of_WINDS"},"data":[0,0,0,0,0,0,0,0,0,0,0,0,0,0,0,0,0,0,0,0,0,0,0,0,0,0,0,0,0,0,0,0,0,0,0,0,0,0,0,0,0,0,0,0,0,0,0,0,0,0,0,0,0,0,0,0,0,0,-5.1504,-5.1505,0,-5.1527,-5.1528,-5.1528,-5.1361,-5.1356,-5.1352,-5.1347,-5.137,-5.1375,-5.138,0,0,0,0,0,0,0,0,0,0,0,0,0,-5.1315,-5.1319,-5.1504,-5.1505,-5.1505,-5.1527,-5.1528,-5.1528,-5.1362,-5.1356,-5.135,-5.1345,-5.1369,-5.1375,-5.138,0,0,0,0,0,0,0,0,0,0,0,0,0,-5.1373,-5.132,-5.1504,-5.1425,-5.1418,-5.1527,-5.1528,-5.1528,-5.1363,-5.1356,-5.1349,-5.1342,-5.1367,-5.1374,-5.1381,-5.1568,0,0,-5.1404,-5.1407,0,0,0,0,0,0,0,0,-5.137,-5.1381,-5.1436,-5.143,-5.1423,-5.1434,-5.1469,-5.1541,-5.1365,-5.1384,-5.1347,-5.1339,-5.1397,-5.1402,-5.1421,-5.1569,-5.157,-5.1405,-5.1409,-5.1413,-5.1415,0,0,0,0,0,0,0,-5.1366,-5.1379,-5.1513,-5.1437,-5.1429,-5.1387,-5.1388,-5.1482,-5.143,-5.1382,-5.137,-5.1375,-5.1392,-5.1415,-5.1421,-5.157,-5.1405,-5.1411,-5.1416,-5.1419,-5.187,-5.1877,0,0,0,0,0,0,-5.1373,-5.1376,-5.1513,-5.1514,-5.1379,-5.1396,-5.1397,-5.1438,-5.1428,-5.142,-5.1381,-5.1367,-5.1405,-5.1412,-5.1421,-5.1636,-5.1412,-5.1419,-5.1424,-5.1862,-5.1871,-5.1879,0,0,0,0,0,0,-5.137,-5.1387,-5.1512,-5.1442,-5.1455,-5.1407,-5.1454,-5.1442,-5.1464,-5.1427,-5.1417,-5.1413,-5.14,-5.141,-5.1532,-5.1635,-5.1423,-5.143,-5.1853,-5.1865,-5.1875,-5.2071,0,0,0,0,0,0,-5.1365,-5.1387,-5.1458,-5.1445,-5.1459,-5.1624,-5.146,-5.1447,-5.1477,-5.1459,-5.1455,-5.1448,-5.1395,-5.1522,-5.154,-5.1641,-5.1435,-5.1844,-5.1859,-5.1872,-5.2055,-5.2087,-5.2115,0,0,0,0,0,-5.1359,-5.1512,-5.1462,-5.148,-5.1547,-5.163,-5.1638,-5.1575,-5.1486,-5.1557,-5.1533,-5.1448,-5.1622,-5.1536,-5.1554,-5.166,-5.1837,-5.1854,-5.1871,-5.2041,-5.2081,-5.2114,0,0,0,0,0,0,-5.1538,-5.1509,-5.1453,-5.1607,-5.1622,-5.1602,-5.1688,-5.1619,-5.1659,-5.1641,-5.156,-5.1561,-5.1696,-5.169,-5.1595,-5.1839,-5.1714,-5.1735,-5.1837,-5.1874,-5.1904,-5.1901,-5.1442,0,0,0,0,0,-5.1596,-5.1667,-5.1637,-5.1776,-5.1786,-5.1737,-5.177,-5.172,-5.1733,-5.1738,-5.1723,-5.1738,-5.1795,-5.1835,-5.1886,-5.2054,-5.2049,-5.2136,-5.2166,-5.2191,-5.221,-5.2295,-5.2333,-5.1935,-5.1935,-5.1934,0,0,-5.1716,-5.1708,-5.1758,-5.1811,-5.1817,-5.1891,-5.1743,-5.1828,-5.1881,-5.1751,-5.1864,-5.1854,-5.1865,-5.201,-5.2074,-5.201,-5.2319,-5.2212,-5.2233,-5.2237,-5.2317,-5.2354,-5.2388,-5.1946,-5.1944,-5.1942,0,0,-5.197,-5.1973,-5.2087,-5.2096,-5.2107,-5.2072,-5.2101,-5.209,-5.2078,-5.2191,-5.2094,-5.2157,-5.2258,-5.2269,-5.2288,-5.2547,-5.2469,-5.2566,-5.2723,-5.2807,-5.2839,-5.2866,-5.2956,-5.2989,-5.2586,-5.2586,-5.2586,0,-5.2117,-5.2224,-5.2155,-5.2246,-5.2271,-5.2157,-5.2271,-5.2283,-5.2311,-5.2331,-5.2259,-5.2383,-5.2383,-5.2527,-5.259,-5.2611,-5.2638,-5.2565,-5.284,-5.2867,-5.2891,-5.2976,-5.301,-5.2597,-5.2596,-5.2595,-5.2594,0,-5.2403,-5.2479,-5.257,-5.2598,-5.2635,-5.2737,-5.2682,-5.2728,-5.2675,-5.2648,-5.2763,-5.2759,-5.2806,-5.2838,-5.2787,-5.2975,-5.2935,-5.2854,-5.2726,-5.2942,-5.302,-5.3052,-5.2614,-5.261,-5.2606,-5.2604,0,0,-5.277,-5.2758,-5.2793,-5.2803,-5.2806,-5.2863,-5.2961,-5.3007,-5.3046,-5.3069,-5.3146,-5.3235,-5.3159,-5.3181,-5.313,-5.3206,-5.3407,-5.3114,-5.3113,-5.3166,-5.3612,-5.3671,-5.371,-5.3357,-5.3363,-5.3368,-5.361,0,-5.3016,-5.318,-5.312,-5.3288,-5.3356,-5.3249,-5.3333,-5.3344,-5.3322,-5.3376,-5.3351,-5.3414,-5.331,-5.3322,-5.3392,-5.3368,-5.3495,-5.335,-5.3427,-5.343,-5.3425,-5.3751,-5.3814,-5.4043,-5.364,-5.3645,-5.3649,0,-5.3324,-5.3359,-5.3534,-5.3523,-5.355,-5.3627,-5.3663,-5.3717,-5.3726,-5.3705,-5.373,-5.3663,-5.3756,-5.3631,-5.3757,-5.366,-5.3688,-5.3681,-5.3688,-5.3691,-5.3551,-5.376,-5.4114,-5.4148,-5.3697,-5.3693,-5.369,0,-5.3571,-5.3661,-5.3777,-5.379,-5.3782,-5.3837,-5.3837,-5.3839,-5.3871,-5.3903,-5.3922,-5.3965,-5.3988,-5.4023,-5.3969,-5.3884,-5.4103,-5.3973,-5.4086,-5.4087,-5.4134,-5.4132,-5.4496,-5.4158,-5.4158,-5.4157,-5.4156,0,-5.385,-5.396,-5.3887,-5.3958,-5.4078,-5.4008,-5.4129,-5.4116,-5.412,-5.4185,-5.4096,-5.416,-5.4086,-5.4143,-5.4102,-5.4211,-5.4223,-5.4207,-5.4194,-5.4214,-5.4215,-5.4229,-5.421,-5.4166,-5.4164,-5.4162,-5.4161,0,-5.4144,-5.41,-5.4218,-5.4201,-5.4199,-5.4288,-5.4273,-5.4337,-5.4309,-5.4393,-5.4409,-5.4365,-5.4427,-5.4377,-5.4438,-5.441,-5.4554,-5.4521,-5.4551,-5.454,-5.4654,-5.4643,-5.5037,-5.5084,-5.472,-5.4724,-5.4727,0,-5.4324,-5.4406,-5.4397,-5.4435,-5.444,-5.4502,-5.4533,-5.4468,-5.4503,-5.452,-5.4583,-5.4637,-5.4676,-5.478,-5.4753,-5.4798,-5.4763,-5.4898,-5.4769,-5.4785,-5.4761,-5.4756,-5.4763,-5.4923,-5.4928,-5.4931,-5.4934,0,-5.4646,-5.462,-5.4668,-5.4709,-5.4748,-5.4778,-5.4799,-5.4835,-5.4769,-5.4814,-5.4875,-5.4906,-5.4968,-5.5022,-5.5058,-5.5056,-5.4984,-5.4976,-5.5003,-5.5022,-5.5035,-5.5026,-5.4619,-5.4966,-5.4963,-5.496,-5.4959,-5.4957,-5.4886,-5.4953,-5.4957,-5.5013,-5.5023,-5.5046,-5.5104,-5.5084,-5.5134,-5.5179,-5.5138,-5.5212,-5.5218,-5.526,-5.5267,-5.5323,-5.5267,-5.5308,-5.5318,-5.5328,-5.5343,-5.5029,-5.533,-5.5329,-5.5328,-5.5327,-5.5327,0,-5.5201,-5.5198,-5.5251,-5.5284,-5.5328,-5.5257,-5.5278,-5.5319,-5.5385,-5.5398,-5.5438,-5.5509,-5.5561,-5.5539,-5.5584,-5.5633,-5.5601,-5.5647,-5.5641,-5.5642,-5.5393,-5.5362,-5.5672,-5.5672,-5.5672,-5.5672,-5.5672,-5.5672,-5.5369,-5.5478,-5.5453,-5.5566,-5.5562,-5.5634,-5.5651,-5.5671,-5.568,-5.5763,-5.5805,-5.5791,-5.5789,-5.5833,-5.5878,-5.5869,-5.5889,-5.5947,-5.5927,-5.5694,-5.5659,-5.5627,-5.5598,-5.5952,-5.5953,-5.617,-5.6172,-5.6174]},{"header":{"parameterUnit":"m.s-1","parameterCategory":1,"la1":30.2991,"la2":30.254,"lo1":-89.0895,"lo2":-89.0444,"dy":0.0017,"dx":0.0017,"nx":28,"ny":28,"refTime":"2023-09-20T09:00:00:Z","depth":0,"parameterNumber":3,"parameterNumberName":"V-component_of_WINDS"},"data":[0,0,0,0,0,0,0,0,0,0,0,0,0,0,0,0,0,0,0,0,0,0,0,0,0,0,0,0,0,0,0,0,0,0,0,0,0,0,0,0,0,0,0,0,0,0,0,0,0,0,0,0,0,0,0,0,0,0,-0.759,-0.7591,0,-0.762,-0.762,-0.7621,-0.7694,-0.7696,-0.7697,-0.7699,-0.7724,-0.7724,-0.7723,0,0,0,0,0,0,0,0,0,0,0,0,0,-0.759,-0.7589,-0.759,-0.7591,-0.7591,-0.762,-0.762,-0.7621,-0.7694,-0.7696,-0.7698,-0.7699,-0.7725,-0.7724,-0.7723,0,0,0,0,0,0,0,0,0,0,0,0,0,-0.7602,-0.7589,-0.759,-0.7631,-0.7635,-0.762,-0.762,-0.7621,-0.7693,-0.7696,-0.7698,-0.77,-0.7725,-0.7724,-0.7723,-0.7669,0,0,-0.7719,-0.7719,0,0,0,0,0,0,0,0,-0.7601,-0.7602,-0.7625,-0.7628,-0.7633,-0.7656,-0.763,-0.7637,-0.7693,-0.7671,-0.7699,-0.7701,-0.7699,-0.77,-0.7701,-0.767,-0.7671,-0.7719,-0.7718,-0.7718,-0.7717,0,0,0,0,0,0,0,-0.76,-0.7601,-0.7602,-0.7625,-0.763,-0.7646,-0.765,-0.7631,-0.7672,-0.7673,-0.7679,-0.7681,-0.7702,-0.7702,-0.7702,-0.7671,-0.7719,-0.7718,-0.7717,-0.7717,-0.7594,-0.7591,0,0,0,0,0,0,-0.7594,-0.7599,-0.7601,-0.7603,-0.7622,-0.7644,-0.7649,-0.7646,-0.7672,-0.7678,-0.7679,-0.7685,-0.7702,-0.7703,-0.7703,-0.7639,-0.7718,-0.7717,-0.7716,-0.7596,-0.7593,-0.759,0,0,0,0,0,0,-0.7594,-0.7594,-0.76,-0.7603,-0.7605,-0.7641,-0.7638,-0.7645,-0.7645,-0.7677,-0.7684,-0.7672,-0.7704,-0.7705,-0.7676,-0.7641,-0.7716,-0.7715,-0.7599,-0.7595,-0.7592,-0.7513,0,0,0,0,0,0,-0.7593,-0.7593,-0.7575,-0.7602,-0.7604,-0.7574,-0.7636,-0.7644,-0.7644,-0.7651,-0.7672,-0.7678,-0.7706,-0.7677,-0.7675,-0.7641,-0.7714,-0.7603,-0.7598,-0.7593,-0.7519,-0.7507,-0.7496,0,0,0,0,0,-0.7593,-0.7551,-0.7573,-0.7573,-0.7583,-0.7572,-0.7574,-0.7609,-0.7641,-0.7621,-0.7641,-0.7677,-0.7646,-0.7674,-0.7672,-0.7637,-0.7605,-0.7599,-0.7593,-0.7524,-0.7509,-0.7497,0,0,0,0,0,0,-0.7518,-0.7555,-0.7581,-0.7547,-0.7556,-0.7585,-0.7562,-0.7593,-0.7592,-0.7599,-0.7641,-0.7645,-0.761,-0.7621,-0.7652,-0.7584,-0.7631,-0.7624,-0.7578,-0.7565,-0.7554,-0.7551,-0.7713,0,0,0,0,0,-0.7498,-0.7488,-0.7521,-0.7487,-0.749,-0.7525,-0.7522,-0.7548,-0.7559,-0.7563,-0.758,-0.7588,-0.7579,-0.7573,-0.7567,-0.752,-0.7524,-0.7495,-0.7484,-0.7475,-0.7468,-0.7441,-0.7427,-0.7571,-0.7571,-0.7571,0,0,-0.7455,-0.7474,-0.7466,-0.7472,-0.7483,-0.7469,-0.7528,-0.7512,-0.7502,-0.756,-0.7534,-0.7547,-0.7557,-0.7518,-0.7502,-0.7527,-0.7429,-0.7467,-0.746,-0.7458,-0.7433,-0.742,-0.7407,-0.7567,-0.7568,-0.7569,0,0,-0.7371,-0.7385,-0.7358,-0.7367,-0.7382,-0.7404,-0.7397,-0.7421,-0.7432,-0.7407,-0.7449,-0.7436,-0.7422,-0.7427,-0.7427,-0.7341,-0.7373,-0.7338,-0.7279,-0.7252,-0.7241,-0.7231,-0.7197,-0.7185,-0.7331,-0.7331,-0.7331,0,-0.7315,-0.7299,-0.7339,-0.732,-0.732,-0.7373,-0.7343,-0.7349,-0.7361,-0.7358,-0.7386,-0.7366,-0.7377,-0.7339,-0.7318,-0.7317,-0.7308,-0.7335,-0.7239,-0.723,-0.7221,-0.719,-0.7177,-0.7326,-0.7327,-0.7327,-0.7328,0,-0.7229,-0.7217,-0.7192,-0.7203,-0.72,-0.7176,-0.7209,-0.7202,-0.7227,-0.7246,-0.7217,-0.7232,-0.7229,-0.7222,-0.7247,-0.7185,-0.72,-0.7232,-0.728,-0.7202,-0.7173,-0.7162,-0.732,-0.7322,-0.7323,-0.7324,0,0,-0.71,-0.7131,-0.7121,-0.7125,-0.7144,-0.7134,-0.711,-0.7108,-0.7099,-0.7104,-0.7083,-0.7068,-0.7098,-0.7098,-0.7124,-0.71,-0.7027,-0.7136,-0.7136,-0.7113,-0.6957,-0.6931,-0.6917,-0.7048,-0.7046,-0.7045,-0.6955,0,-0.7019,-0.6982,-0.7016,-0.6972,-0.6959,-0.7007,-0.6985,-0.6993,-0.7009,-0.6998,-0.7016,-0.7003,-0.7045,-0.7045,-0.7024,-0.704,-0.6996,-0.7047,-0.7027,-0.7025,-0.7021,-0.6902,-0.6875,-0.679,-0.6944,-0.6943,-0.6941,0,-0.692,-0.6921,-0.6875,-0.6894,-0.689,-0.6871,-0.687,-0.686,-0.6868,-0.6881,-0.688,-0.6911,-0.6885,-0.6932,-0.6896,-0.6931,-0.6924,-0.693,-0.6928,-0.6926,-0.6978,-0.6895,-0.6764,-0.6751,-0.6924,-0.6926,-0.6927,0,-0.6827,-0.6817,-0.6787,-0.679,-0.6812,-0.6796,-0.6804,-0.6815,-0.681,-0.6808,-0.6805,-0.68,-0.6796,-0.679,-0.6817,-0.6849,-0.6776,-0.6827,-0.6784,-0.6783,-0.6766,-0.6766,-0.663,-0.6764,-0.6764,-0.6764,-0.6765,0,-0.6732,-0.6702,-0.6746,-0.6728,-0.6694,-0.6731,-0.6696,-0.6708,-0.6717,-0.67,-0.6741,-0.6723,-0.6761,-0.6746,-0.6767,-0.6732,-0.6731,-0.6738,-0.6744,-0.6734,-0.6733,-0.6729,-0.6735,-0.6761,-0.6762,-0.6762,-0.6763,0,-0.6623,-0.6651,-0.6622,-0.6645,-0.665,-0.6623,-0.6642,-0.6624,-0.6642,-0.662,-0.6616,-0.6644,-0.6628,-0.6655,-0.6643,-0.6657,-0.6607,-0.6623,-0.6605,-0.6609,-0.6564,-0.6567,-0.642,-0.6401,-0.6548,-0.6547,-0.6545,0,-0.656,-0.6538,-0.6557,-0.655,-0.6555,-0.6542,-0.6538,-0.6572,-0.6565,-0.6571,-0.6551,-0.654,-0.6532,-0.6505,-0.6522,-0.6512,-0.6526,-0.6475,-0.6525,-0.6514,-0.6522,-0.6523,-0.6519,-0.6464,-0.6463,-0.6461,-0.646,0,-0.6444,-0.6459,-0.6452,-0.6448,-0.6441,-0.644,-0.6441,-0.6431,-0.6468,-0.6457,-0.6442,-0.6436,-0.6423,-0.6409,-0.6403,-0.6409,-0.6438,-0.6444,-0.6433,-0.6422,-0.6412,-0.6414,-0.6575,-0.6447,-0.6449,-0.645,-0.645,-0.6451,-0.6355,-0.6336,-0.6346,-0.6336,-0.634,-0.634,-0.6323,-0.6339,-0.6328,-0.6321,-0.6341,-0.6321,-0.6326,-0.632,-0.6322,-0.6304,-0.6327,-0.6312,-0.6308,-0.6303,-0.6295,-0.6416,-0.6304,-0.6304,-0.6304,-0.6305,-0.6305,0,-0.6239,-0.6248,-0.6238,-0.6238,-0.6228,-0.626,-0.6261,-0.6251,-0.6233,-0.6236,-0.6227,-0.6208,-0.6194,-0.6209,-0.6198,-0.618,-0.6193,-0.6176,-0.6176,-0.6176,-0.6277,-0.6286,-0.6165,-0.6165,-0.6165,-0.6165,-0.6165,-0.6165,-0.6178,-0.6147,-0.6162,-0.6132,-0.6141,-0.6122,-0.612,-0.6118,-0.612,-0.6098,-0.6087,-0.6097,-0.6104,-0.6093,-0.608,-0.6085,-0.6077,-0.6054,-0.6063,-0.6156,-0.617,-0.6183,-0.6192,-0.6053,-0.6052,-0.5964,-0.5963,-0.5962]}]]